Volver al catálogo

THOR ABLESTAR DEB

ActivoLEO
NORAD 152·DEBRIS·🇺🇸 United States

Lanzado Jun 29, 1961 desde Cape Canaveral Space Force Station

Loading…

Próximos Pases (próximas 24 horas)

TLE

ActualizadoSource: Space-Track

Época: Sep 10, 2026, 17:10 UTC

1 00152U 61015AN  26253.71587311 -.00000088  00000-0 -25065-5 0  9993
2 00152  66.5924 101.3890 0145436 140.5269 220.6523 14.11583705338159

Sigue THOR ABLESTAR DEB en tiempo real con AllMySat

Download on the App Store